{"data":{"norad_id":43508,"intl_designator":"2018-053A","name":"COSMOS 2527 (756)","alt_names":[],"object_type":"PAYLOAD","status":"ACTIVE","operator":null,"country":"CIS","launch_date":"2018-06-16","launch_site_code":"PLMSC","launch_vehicle":null,"mission":null,"orbit_class":"UNKNOWN","rcs_meters":null,"size_class":null,"mass_kg":null,"dimensions":null,"purposes":["nav"],"wikipedia_slug":null,"has_3d_model":false,"image_url":null,"decayed_at":null,"tle_current":{"epoch":"2026-05-24T03:39:18.124704Z","epoch_age_seconds":144336,"freshness":"FRESH","line1":"1 43508U 18053A   26144.15229311 -.00000027  00000+0  00000+0 0  9996","line2":"2 43508  65.5655  74.7084 0007600 245.1002 114.8130  2.13102017 61766","mean_motion":2.13102017,"eccentricity":0.00076,"inclination_deg":65.5655,"raan_deg":74.7084,"arg_perigee_deg":245.1002,"mean_anomaly_deg":114.813,"bstar":0,"rev_number":6176,"period_min":675.73269379238,"perigee_km":19110.499973413,"apogee_km":19149.27216848,"semimajor_km":25508.023070946,"source":"CELESTRAK","updated_at":"2026-05-25T13:38:23.895149Z"}}}